Back to catalog

DELTA 1 DEB

YO

AliveLEO
NORAD 312·DEBRIS·🇺🇸 United States

Launched Jun 19, 1962 from Cape Canaveral Space Force Station

Loading…

Next Passes (next 24 hours)

TLE

FreshSource: Space-Track

Epoch: Sep 14, 2026, 10:57 UTC

1 00312U 62025C   26257.45689260  .00000865  00000-0  16381-3 0  9994
2 00312  58.2450  57.3599 0195164  66.2629 295.8741 14.62040251371975

Track DELTA 1 DEB in real time with AllMySat

Download on the App Store